sat.trackr.live / text

‹ back to catalog

STARLINK-31983

NORAD 60602 · 2024-150V

PAYLOAD ACTIVE UNKNOWN

§ Identity

Operator
Country
US
Launch date
2024-08-20
Launch site
AFETR
Launch vehicle
Mass (kg)
RCS (m²)

Purposes: comms

External: N2YO · Heavens-Above · Gunter

§ Orbital elements

Epoch: 2026-05-25T04:04:10.968960Z

Period
93.85 min
Inclination
53.1623°
Eccentricity
0.0001013
Mean motion
15.34388015 rev/d
Perigee alt
462.0 km
Apogee alt
463.4 km
Semi-major
6,840.9 km
B*
3.9939e-5
RAAN
310.8715°
Arg perigee
99.0265°
Mean anomaly
261.0852°
Rev number
9,968

§ Raw data

STARLINK-319831 60602U 24150V   26145.16957140  .00000973  00000+0  39939-4 0  99922 60602  53.1623 310.8715 0001013  99.0265 261.0852 15.34388015 99681

JSON: /api/v1/satellites/60602 · /tle

For live sub-satellite position, see the globe view (requires WebGL).

§ Visibility from observer

Set your observer location to see the next 7 days of passes ≥ 10°. The values pass through the URL so the page stays shareable.

No JS? Fill the form by hand. The geolocation button needs JavaScript.